[[{"header":{"parameterUnit":"m.s-1","parameterCategory":1,"la1":30.2991,"la2":30.254,"lo1":-89.0895,"lo2":-89.0444,"dy":0.0017,"dx":0.0017,"nx":28,"ny":28,"refTime":"2025-01-19T09:00:00:Z","depth":0,"parameterNumber":2,"parameterNumberName":"U-component_of_WINDS"},"data":[0,0,0,0,0,0,0,0,0,0,0,0,0,0,0,0,0,0,0,0,0,0,0,0,0,0,0,0,0,0,0,0,0,0,0,0,0,0,0,0,0,0,0,0,0,0,0,0,0,0,0,0,0,0,0,0,0,0,1.1084,1.1084,0,1.1096,1.1096,1.1096,1.1099,1.1099,1.1099,1.1099,1.111,1.111,1.111,0,0,0,0,0,0,0,0,0,0,0,0,0,1.1064,1.1065,1.1084,1.1084,1.1084,1.1095,1.1096,1.1096,1.1099,1.1099,1.1099,1.1099,1.1109,1.111,1.111,0,0,0,0,0,0,0,0,0,0,0,0,0,1.1074,1.1065,1.1084,1.1087,1.1087,1.1095,1.1096,1.1096,1.1099,1.1099,1.1099,1.1099,1.1109,1.111,1.111,1.1116,0,0,1.1112,1.1112,0,0,0,0,0,0,0,0,1.1073,1.1075,1.1086,1.1087,1.1087,1.1096,1.1093,1.1102,1.1099,1.1095,1.1099,1.1099,1.1105,1.1106,1.1108,1.1116,1.1117,1.1112,1.1112,1.1113,1.1113,0,0,0,0,0,0,0,1.1073,1.1074,1.1088,1.1087,1.1087,1.1088,1.1089,1.1095,1.11,1.1095,1.1095,1.1097,1.1105,1.1108,1.1108,1.1117,1.1112,1.1112,1.1113,1.1113,1.1131,1.1131,0,0,0,0,0,0,1.1072,1.1074,1.1088,1.1089,1.108,1.1088,1.109,1.1093,1.11,1.1101,1.1097,1.1097,1.1107,1.1108,1.1109,1.1116,1.1113,1.1113,1.1113,1.1131,1.1131,1.1131,0,0,0,0,0,0,1.1071,1.1073,1.1088,1.1081,1.1083,1.1089,1.1092,1.1093,1.1096,1.1101,1.1102,1.1098,1.1107,1.1108,1.1114,1.1116,1.1113,1.1114,1.1131,1.1131,1.1131,1.113,0,0,0,0,0,0,1.1071,1.1073,1.1074,1.1081,1.1084,1.1093,1.1093,1.1094,1.1097,1.1097,1.1103,1.1104,1.1107,1.1113,1.1115,1.1117,1.1114,1.113,1.1131,1.1131,1.113,1.113,1.1131,0,0,0,0,0,1.107,1.1073,1.1075,1.1076,1.1086,1.1093,1.1094,1.1097,1.1097,1.1099,1.1103,1.1104,1.1116,1.1114,1.1116,1.1118,1.113,1.1131,1.1131,1.113,1.113,1.1131,0,0,0,0,0,0,1.1066,1.1074,1.1076,1.1081,1.1086,1.1093,1.1096,1.1098,1.1102,1.1102,1.1106,1.1108,1.1114,1.1117,1.1114,1.1124,1.1123,1.1124,1.1122,1.1122,1.1123,1.1122,1.1115,0,0,0,0,0,1.1066,1.107,1.1078,1.1082,1.1084,1.109,1.1093,1.1095,1.11,1.1102,1.1107,1.1112,1.1117,1.112,1.1125,1.1131,1.1133,1.1134,1.1134,1.1134,1.1134,1.1139,1.114,1.1132,1.1132,1.1132,0,0,1.1065,1.107,1.1073,1.1081,1.1085,1.1091,1.1091,1.1096,1.11,1.1103,1.1109,1.1113,1.1119,1.1125,1.1128,1.1128,1.1137,1.1135,1.1135,1.1135,1.1139,1.114,1.1141,1.1133,1.1133,1.1133,0,0,1.1066,1.1071,1.1075,1.108,1.1087,1.1091,1.1092,1.1099,1.1102,1.1108,1.1111,1.1116,1.1124,1.1129,1.1132,1.1137,1.1139,1.1139,1.114,1.1145,1.1145,1.1146,1.1148,1.1149,1.1139,1.1139,1.1139,0,1.1065,1.1073,1.1077,1.1083,1.1087,1.1091,1.1096,1.11,1.1108,1.111,1.111,1.1122,1.1126,1.1134,1.1136,1.1138,1.114,1.1138,1.1145,1.1145,1.1146,1.1148,1.1149,1.1139,1.1139,1.1139,1.1139,0,1.107,1.1076,1.1079,1.1087,1.1092,1.1097,1.1103,1.1107,1.1109,1.1113,1.1121,1.1126,1.1133,1.1135,1.1137,1.1144,1.1143,1.1144,1.1143,1.1146,1.1149,1.1149,1.1139,1.1139,1.1139,1.1139,0,0,1.1068,1.108,1.1081,1.1086,1.1094,1.1099,1.1105,1.1112,1.1115,1.1121,1.1126,1.1135,1.1136,1.1139,1.1143,1.1146,1.1151,1.1147,1.1147,1.1147,1.1159,1.1158,1.1159,1.1153,1.1153,1.1153,1.1159,0,1.107,1.1081,1.1086,1.1095,1.11,1.1105,1.111,1.1116,1.1121,1.1126,1.1131,1.1137,1.1138,1.1141,1.1145,1.115,1.1154,1.1149,1.1157,1.1157,1.1155,1.116,1.1159,1.1164,1.116,1.116,1.116,0,1.1074,1.1081,1.109,1.1099,1.1102,1.1106,1.1114,1.112,1.1127,1.113,1.1135,1.1139,1.1146,1.1145,1.1155,1.1152,1.1156,1.1159,1.1159,1.1159,1.1158,1.1161,1.1166,1.1167,1.1161,1.1161,1.1161,0,1.1072,1.1083,1.109,1.1094,1.1105,1.1108,1.1113,1.112,1.1125,1.1132,1.1135,1.1142,1.1146,1.1152,1.1158,1.1157,1.1167,1.1167,1.117,1.117,1.1171,1.1171,1.1177,1.1174,1.1174,1.1174,1.1174,0,1.1074,1.1079,1.1089,1.1094,1.11,1.1107,1.1113,1.1118,1.1125,1.1131,1.1136,1.1141,1.1148,1.1155,1.1159,1.1167,1.1169,1.1172,1.1173,1.1171,1.117,1.1173,1.1172,1.1175,1.1175,1.1175,1.1175,0,1.1071,1.1079,1.1087,1.1097,1.11,1.1104,1.1113,1.1118,1.1123,1.1131,1.1133,1.1141,1.1149,1.1156,1.1166,1.1169,1.1177,1.1178,1.1174,1.1175,1.1178,1.1177,1.1185,1.1187,1.1183,1.1183,1.1183,0,1.1072,1.1076,1.1088,1.1092,1.1097,1.1104,1.1109,1.1116,1.1121,1.1131,1.1135,1.1143,1.115,1.1163,1.117,1.1178,1.1179,1.1182,1.118,1.1179,1.1179,1.1179,1.1179,1.1181,1.1181,1.1181,1.1181,0,1.1072,1.1076,1.1083,1.1092,1.1098,1.1105,1.1112,1.1115,1.1124,1.113,1.1138,1.1144,1.1155,1.1164,1.1173,1.1178,1.1181,1.1182,1.1183,1.1181,1.1178,1.118,1.1174,1.1181,1.1181,1.1181,1.1181,1.1181,1.1071,1.1076,1.1085,1.1093,1.1099,1.1106,1.1112,1.1118,1.1126,1.1135,1.114,1.1148,1.1157,1.117,1.1176,1.1183,1.1183,1.1185,1.1185,1.1185,1.1185,1.1178,1.1184,1.1184,1.1184,1.1184,1.1184,0,1.1072,1.1078,1.1086,1.1096,1.1103,1.1106,1.1115,1.112,1.1128,1.1136,1.1143,1.1154,1.1162,1.1171,1.118,1.1184,1.1186,1.1187,1.1186,1.1187,1.1184,1.1182,1.1185,1.1185,1.1185,1.1185,1.1185,1.1185,1.1072,1.1081,1.1086,1.1097,1.1104,1.1113,1.1118,1.1124,1.1131,1.1143,1.115,1.1156,1.1164,1.1175,1.1183,1.1185,1.1188,1.1188,1.1191,1.1188,1.1187,1.1187,1.1185,1.1189,1.1189,1.1194,1.1194,1.1194]},{"header":{"parameterUnit":"m.s-1","parameterCategory":1,"la1":30.2991,"la2":30.254,"lo1":-89.0895,"lo2":-89.0444,"dy":0.0017,"dx":0.0017,"nx":28,"ny":28,"refTime":"2025-01-19T09:00:00:Z","depth":0,"parameterNumber":3,"parameterNumberName":"V-component_of_WINDS"},"data":[0,0,0,0,0,0,0,0,0,0,0,0,0,0,0,0,0,0,0,0,0,0,0,0,0,0,0,0,0,0,0,0,0,0,0,0,0,0,0,0,0,0,0,0,0,0,0,0,0,0,0,0,0,0,0,0,0,0,-8.8335,-8.8337,0,-8.8524,-8.8526,-8.8528,-8.8438,-8.8433,-8.8428,-8.8424,-8.861,-8.862,-8.8629,0,0,0,0,0,0,0,0,0,0,0,0,0,-8.789,-8.7899,-8.8335,-8.8337,-8.834,-8.8524,-8.8526,-8.8529,-8.8439,-8.8433,-8.8427,-8.8422,-8.8607,-8.8619,-8.863,0,0,0,0,0,0,0,0,0,0,0,0,0,-8.8082,-8.7902,-8.8335,-8.8317,-8.8318,-8.8523,-8.8526,-8.8529,-8.844,-8.8433,-8.8426,-8.8419,-8.8604,-8.8617,-8.8631,-8.8863,0,0,-8.8675,-8.8681,0,0,0,0,0,0,0,0,-8.8071,-8.8098,-8.8317,-8.8319,-8.832,-8.845,-8.8438,-8.8641,-8.8442,-8.8393,-8.8424,-8.8416,-8.8563,-8.858,-8.8631,-8.8871,-8.8879,-8.8676,-8.8684,-8.8691,-8.8695,0,0,0,0,0,0,0,-8.8058,-8.8089,-8.8409,-8.8321,-8.8322,-8.8298,-8.8317,-8.8476,-8.8516,-8.8397,-8.8391,-8.8415,-8.8562,-8.8617,-8.8634,-8.8882,-8.8675,-8.8688,-8.8697,-8.8702,-8.9322,-8.9329,0,0,0,0,0,0,-8.8046,-8.8079,-8.8403,-8.8415,-8.8175,-8.8312,-8.8333,-8.8415,-8.8514,-8.8522,-8.8421,-8.841,-8.8597,-8.8618,-8.864,-8.8918,-8.869,-8.8704,-8.8712,-8.9314,-8.9323,-8.9332,0,0,0,0,0,0,-8.8037,-8.8076,-8.8396,-8.8246,-8.8284,-8.8327,-8.842,-8.8423,-8.8478,-8.8532,-8.8538,-8.8471,-8.8592,-8.8621,-8.8809,-8.8923,-8.871,-8.8723,-8.9304,-8.9317,-8.9328,-8.9475,0,0,0,0,0,0,-8.8024,-8.8073,-8.8163,-8.8248,-8.8293,-8.8563,-8.8427,-8.8432,-8.8504,-8.8492,-8.858,-8.8588,-8.8588,-8.8788,-8.8823,-8.8939,-8.8734,-8.9294,-8.931,-8.9324,-8.946,-8.9491,-8.9517,0,0,0,0,0,-8.8009,-8.8195,-8.8168,-8.8208,-8.8407,-8.857,-8.8595,-8.8594,-8.8514,-8.8603,-8.8638,-8.8585,-8.8905,-8.8808,-8.8846,-8.8968,-8.9287,-8.9306,-8.9323,-8.9447,-8.9485,-8.9516,0,0,0,0,0,0,-8.812,-8.8206,-8.8177,-8.8397,-8.8477,-8.8555,-8.8668,-8.8633,-8.8736,-8.872,-8.8711,-8.8732,-8.8927,-8.8966,-8.8856,-8.9197,-8.9083,-8.911,-8.9165,-8.9201,-8.9228,-8.9215,-8.8746,0,0,0,0,0,-8.817,-8.8298,-8.8366,-8.8553,-8.8595,-8.8625,-8.8696,-8.8688,-8.877,-8.8803,-8.8851,-8.893,-8.9048,-8.9126,-8.9238,-8.9465,-8.9483,-8.9568,-8.9596,-8.9619,-8.9642,-8.9764,-8.9803,-8.9391,-8.9391,-8.939,0,0,-8.8275,-8.8338,-8.8419,-8.8577,-8.8638,-8.8769,-8.8654,-8.8797,-8.8893,-8.8824,-8.9005,-8.9043,-8.9131,-8.934,-8.9434,-8.9378,-8.976,-8.9642,-8.966,-8.967,-8.9787,-8.9826,-8.986,-8.9403,-8.9401,-8.9399,0,0,-8.8533,-8.8594,-8.8758,-8.8822,-8.8917,-8.8936,-8.8975,-8.9058,-8.9082,-8.9264,-8.9215,-8.9327,-8.9532,-8.9597,-8.9656,-8.994,-8.9895,-8.9976,-9.0123,-9.0243,-9.0275,-9.0304,-9.0405,-9.0442,-8.9998,-8.9999,-8.9999,0,-8.8651,-8.8849,-8.8845,-8.8993,-8.9064,-8.9009,-8.9173,-8.9235,-8.9361,-8.941,-8.9346,-8.9602,-8.9657,-8.988,-8.995,-9.0,-9.0043,-8.9966,-9.0272,-9.03,-9.0327,-9.0423,-9.0461,-9.0008,-9.0007,-9.0006,-9.0005,0,-8.8989,-8.9126,-8.9246,-8.9372,-8.9456,-8.9611,-8.963,-8.9715,-8.9699,-8.9724,-8.991,-8.9974,-9.0099,-9.0151,-9.0136,-9.0372,-9.0335,-9.0272,-9.0157,-9.0376,-9.0466,-9.0503,-9.0021,-9.0018,-9.0015,-9.0013,0,0,-8.9322,-8.9445,-8.9489,-8.9546,-8.9647,-8.9752,-8.9904,-9.0028,-9.0101,-9.0189,-9.0315,-9.049,-9.0433,-9.05,-9.0492,-9.0598,-9.0818,-9.0521,-9.0523,-9.0574,-9.1081,-9.1129,-9.1172,-9.0789,-9.0796,-9.0801,-9.1074,0,-8.9588,-8.9857,-8.9859,-9.0106,-9.0232,-9.0182,-9.0314,-9.0389,-9.0417,-9.0526,-9.0554,-9.0679,-9.0594,-9.0634,-9.0736,-9.077,-9.092,-9.075,-9.0905,-9.0911,-9.0885,-9.1219,-9.1269,-9.1523,-9.1109,-9.1115,-9.112,0,-8.9934,-9.0037,-9.0297,-9.0381,-9.0433,-9.0553,-9.0666,-9.0772,-9.0856,-9.0868,-9.0945,-9.0921,-9.1073,-9.0954,-9.1164,-9.1049,-9.1112,-9.1138,-9.1147,-9.1162,-9.1029,-9.1242,-9.1604,-9.1643,-9.1175,-9.1171,-9.1167,0,-9.0151,-9.0354,-9.0537,-9.0586,-9.0688,-9.0773,-9.0819,-9.0895,-9.097,-9.1068,-9.1116,-9.123,-9.1292,-9.138,-9.1387,-9.13,-9.1598,-9.1479,-9.1611,-9.1611,-9.1676,-9.1672,-9.2054,-9.1717,-9.1717,-9.1716,-9.1715,0,-9.0448,-9.061,-9.0636,-9.0748,-9.0927,-9.0926,-9.1103,-9.114,-9.1209,-9.1327,-9.1289,-9.1399,-9.1401,-9.1513,-9.1519,-9.1691,-9.1719,-9.1732,-9.1732,-9.1737,-9.1735,-9.1778,-9.176,-9.1726,-9.1724,-9.1722,-9.172,0,-9.0722,-9.0746,-9.0942,-9.1022,-9.1046,-9.1175,-9.1242,-9.1348,-9.1372,-9.1521,-9.1555,-9.1592,-9.1722,-9.1737,-9.1888,-9.1892,-9.21,-9.208,-9.2073,-9.207,-9.2201,-9.2188,-9.2624,-9.2681,-9.2306,-9.231,-9.2313,0,-9.091,-9.1033,-9.1128,-9.1205,-9.1256,-9.1381,-9.1457,-9.146,-9.1541,-9.1646,-9.1739,-9.1866,-9.1967,-9.2177,-9.2215,-9.233,-9.2313,-9.2458,-9.233,-9.2331,-9.2316,-9.2309,-9.2321,-9.2483,-9.2487,-9.249,-9.2493,0,-9.1241,-9.1247,-9.136,-9.1478,-9.1571,-9.1663,-9.175,-9.1814,-9.1828,-9.192,-9.2054,-9.2134,-9.2289,-9.2415,-9.2528,-9.2572,-9.2535,-9.2533,-9.2569,-9.2575,-9.2566,-9.2573,-9.2141,-9.2523,-9.252,-9.2517,-9.2516,-9.2515,-9.1478,-9.1585,-9.167,-9.1796,-9.1862,-9.1944,-9.2048,-9.2086,-9.2198,-9.2327,-9.2321,-9.2469,-9.2548,-9.2697,-9.2749,-9.2863,-9.2815,-9.2868,-9.2881,-9.2894,-9.2908,-9.2548,-9.2883,-9.2883,-9.2882,-9.2881,-9.2881,0,-9.1807,-9.1859,-9.1976,-9.21,-9.22,-9.2158,-9.2252,-9.2337,-9.2469,-9.2547,-9.2648,-9.2802,-9.2924,-9.2972,-9.3091,-9.3173,-9.3159,-9.3204,-9.3198,-9.3209,-9.2944,-9.2901,-9.3213,-9.3213,-9.3213,-9.3213,-9.3213,-9.3213,-9.1991,-9.2171,-9.2187,-9.2399,-9.2448,-9.2595,-9.2652,-9.2727,-9.2789,-9.2964,-9.3066,-9.3097,-9.3164,-9.3287,-9.3396,-9.3407,-9.3452,-9.3506,-9.3509,-9.3261,-9.3227,-9.3195,-9.3154,-9.3515,-9.3516,-9.3764,-9.3766,-9.3768]}]]